Weather History for Kirksville, MO

Change the Weather History Date:

Tuesday, January 8, 2013

  Actual Average Record
Temperature  
Mean Temperature 36 °F 26 °F  
Max Temperature 45 °F 35 °F 68 °F (2003)
Min Temperature 28 °F 17 °F -11 °F (1970)
Degree Days  
Heating Degree Days 28 39  
Month to date heating degree days 312  
Since 1 July heating degree days 2655  
Moisture  
Dew Point 27 °F    
Average Humidity 67    
Maximum Humidity 79    
Minimum Humidity 55    
Precipitation  
Precipitation 0.00 in 0.03 in 0.95 in (1937)
Month to date precipitation 0.26  
Year to date precipitation 0.26  
Sea Level Pressure  
Sea Level Pressure 30.08 in    
Wind  
Wind Speed 8 mph (SSW)    
Max Wind Speed 15 mph    
Max Gust Speed 21 mph    
Visibility 10 miles    
Events      
T = Trace of Precipitation, MM = Missing Value Source: NWS Daily Summary

Daily Weather History Graph

Daily Weather History Graph

Search for Another Location

Airport:

Trip Planner

Search our weather history database for the weather conditions in past years. The results will help you decide how hot, cold, wet, or windy it might be!

Date:

Astronomy

Jan. 08, 2013 Rise Set
Actual Time 7:32 AM CST 5:02 PM CST
Civil Twilight 7:02 AM CST 5:32 PM CST
Nautical Twilight 6:28 AM CST 6:06 PM CST
Astronomical Twilight 5:55 AM CST 6:38 PM CST
Moon 4:05 AM CST (1/8) 2:04 PM CST (1/8)
Length of Visible Light 10h 30m
Length of Day
9h 29m
Waning Crescent, 13% of the Moon is Illuminated
Jan 8
Waning Crescent
Jan 11
New
Jan 18
First Quarter
Jan 26
Full
Feb 3
Last Quarter

Hourly Weather History & Observations

Time (CST) Temp. Windchill Dew Point Humidity Pressure Visibility Wind Dir Wind Speed Gust Speed Precip Events Conditions
12:55 AM 32.0 °F 26.4 °F 24.1 °F 73% 30.11 in 10.0 mi SSW 5.8 mph - N/A   Clear
1:55 AM 32.0 °F 25.6 °F 24.1 °F 73% 30.11 in 10.0 mi SSW 6.9 mph - N/A   Clear
2:55 AM 30.0 °F 22.4 °F 23.0 °F 75% 30.11 in 10.0 mi SSW 8.1 mph - N/A   Clear
3:55 AM 30.0 °F 24.1 °F 23.0 °F 75% 30.10 in 10.0 mi SSW 5.8 mph - N/A   Clear
4:55 AM 28.9 °F 22.8 °F 23.0 °F 78% 30.09 in 10.0 mi SSW 5.8 mph - N/A   Clear
5:55 AM 30.0 °F 25.2 °F 24.1 °F 79% 30.09 in 10.0 mi SSW 4.6 mph - N/A   Clear
6:55 AM 30.9 °F 22.2 °F 24.1 °F 76% 30.09 in 10.0 mi South 10.4 mph - N/A   Clear
7:55 AM 32.0 °F 25.6 °F 24.1 °F 73% 30.10 in 10.0 mi South 6.9 mph - N/A   Clear
8:55 AM 34.0 °F 26.0 °F 25.0 °F 70% 30.11 in 10.0 mi South 10.4 mph - N/A   Clear
9:55 AM 37.0 °F 30.4 °F 27.0 °F 67% 30.11 in 10.0 mi South 9.2 mph - N/A   Clear
10:55 AM 37.9 °F 32.7 °F 27.0 °F 65% 30.11 in 10.0 mi South 6.9 mph - N/A   Clear
11:55 AM 41.0 °F 34.3 °F 27.0 °F 57% 30.08 in 10.0 mi South 11.5 mph - N/A   Clear
12:55 PM 42.1 °F 35.2 °F 28.0 °F 58% 30.06 in 10.0 mi SSW 12.7 mph - N/A   Clear
1:55 PM 44.1 °F 37.1 °F 28.9 °F 55% 30.04 in 10.0 mi South 15.0 mph - N/A   Clear
2:55 PM 45.0 °F 38.9 °F 30.0 °F 56% 30.04 in 10.0 mi SSW 12.7 mph - N/A   Clear
3:55 PM 44.1 °F 38.6 °F 30.0 °F 58% 30.03 in 10.0 mi South 10.4 mph - N/A   Clear
4:55 PM 42.1 °F 35.2 °F 30.0 °F 62% 30.01 in 10.0 mi South 12.7 mph - N/A   Partly Cloudy
5:55 PM 41.0 °F 35.8 °F 28.9 °F 62% 30.04 in 10.0 mi SSW 8.1 mph - N/A   Partly Cloudy
6:55 PM 39.9 °F 35.1 °F 28.9 °F 65% 30.06 in 10.0 mi South 6.9 mph - N/A   Clear
7:55 PM 39.9 °F 33.9 °F 28.9 °F 65% 30.07 in 10.0 mi South 9.2 mph - N/A   Scattered Clouds
8:55 PM 43.0 °F 37.2 °F 30.9 °F 62% 30.08 in 10.0 mi SW 10.4 mph - N/A   Clear
9:55 PM 42.1 °F 37.1 °F 33.1 °F 70% 30.08 in 10.0 mi SW 8.1 mph - N/A   Clear
10:55 PM 44.6 °F 39.7 °F 33.8 °F 66% 30.09 in 10.0 mi WSW 9.2 mph 20.7 mph N/A   Clear
11:55 PM 41.0 °F 35.2 °F 33.1 °F 73% 30.15 in 10.0 mi West 9.2 mph 16.1 mph N/A   Clear